Location: Château-Garnier
(44.0865°N, 6.4804°E)
Time: 11:07:38
(UTC+00:00)

Daily predictions for brighter satellites

Satellite Brightness Start Highest point End
(mag) Time Altitude Azimuth Time Altitude Azimuth Time Altitude Azimuth
SL-08 R/B 4.2 18:43:49 10° N 18:48:27 56° WNW 18:53:08 10° SSW
CZ-4C R/B 4.5 18:44:12 10° NNW 18:48:57 20° NNE 18:54:25 10° ENE
Meteor 1-21 Rocket 4.4 18:45:21 10° N 18:51:19 87° E 18:57:14 10° S
Cosmos 2297 Rocket 4.0 18:50:23 10° N 18:54:01 17° NE 18:57:37 10° E
Cosmos 2369 Rocket 3.6 18:50:29 10° SW 18:55:54 45° WNW 19:01:20 10° NNE
BlueWalker 3 2.7 18:56:24 10° SSW 18:59:46 30° SE 19:03:09 10° ENE
Meteor 1-11 4.4 18:55:55 10° N 19:01:32 57° ENE 19:07:09 10° SSE
ATLAS 5 CENTAUR R/B 1.0 19:00:50 10° SW 19:04:08 82° NW 19:07:45 10° NE
Cosmos 2098 Rocket 3.1 19:01:57 10° S 19:06:48 63° E 19:10:46 10° NNE
PSLV R/B 4.1 19:03:22 10° SE 19:06:54 44° ENE 19:10:30 10° N
CARTOSAT-1 4.0 19:03:35 10° SE 19:07:36 43° ENE 19:11:39 10° N
Cosmos 1455 3.5 19:05:44 10° SSW 19:09:07 42° WNW 19:12:32 10° N
Cosmos 2366 rocket 4.4 19:04:26 10° NNW 19:10:48 73° W 19:17:06 10° S
Resurs 1-3 4.1 19:06:43 10° S 19:11:01 62° W 19:15:20 10° NNW
Okean-O 3.6 19:11:08 11° SE 19:14:43 29° ENE 19:18:33 10° N
CZ-4B R/B 3.3 19:11:02 10° SSE 19:16:41 90° ENE 19:22:17 10° NNW
Cosmos 1975 Rocket 3.1 19:12:36 10° N 19:16:56 79° W 19:21:14 10° S
Nadezhda 3 Rocket 4.1 19:15:06 10° SSE 19:21:03 55° E 19:27:03 10° NNE
CZ-4C R/B 4.0 19:19:50 10° NE 19:22:44 25° E 19:24:53 14° SSE
USA 186 1.8 19:20:17 10° S 19:23:18 71° WSW 19:26:18 10° NNW
Cosmos 1821 Rocket 3.9 19:18:22 10° N 19:24:33 82° E 19:30:39 10° S
Genesis I 4.4 19:21:44 10° NNW 19:24:49 25° NE 19:26:55 16° E
SL-27 R/B 2.1 19:22:17 10° NNW 19:25:10 71° WSW 19:27:52 11° SSE
SPOT 1/Viking Rocket 4.0 19:20:08 10° S 19:25:18 65° WSW 19:30:31 10° NNW
BREEZE-M R/B 3.5 19:23:26 10° NW 19:25:46 26° N 19:27:40 12° ENE
USA 267 3.8 19:21:17 10° NE 19:27:43 61° NNW 19:34:07 10° WSW
Okean O Rocket 1.5 19:25:03 10° SSE 19:29:23 81° ENE 19:33:47 10° N
Feng Yun 1-1 Rocket 4.4 19:24:44 10° SSE 19:30:16 82° WSW 19:36:00 10° NNW
CZ-4 R/B 3.0 19:30:59 10° SSW 19:34:33 34° W 19:38:06 10° NNW
Atlas Centaur 2 3.6 19:33:31 10° SSW 19:36:07 14° S 19:37:20 13° SSE
Cosmos 1486 Rocket 3.9 19:31:00 10° NNW 19:36:15 85° ENE 19:40:56 13° SSE
Cosmos 1536 Rocket 3.8 19:38:42 10° N 19:43:02 52° ENE 19:45:49 21° SSE
SJ 16-02 3.9 19:41:01 10° NW 19:44:04 19° W 19:47:06 10° SW
Resurs 01 Rocket 1.9 19:39:46 10° S 19:44:09 69° WSW 19:48:35 10° NNW
MOS 1 4.4 19:43:33 17° SE 19:47:50 58° ENE 19:53:25 10° N
NOSS 3-1 (A) 3.2 19:45:42 10° SW 19:50:34 76° NW 19:56:27 10° NE
ERS-1 Rocket 3.9 19:51:26 23° ESE 19:53:26 31° ENE 19:57:49 10° N
Tiangong -1.3 19:54:45 10° SW 19:57:17 33° S 19:57:17 33° S
USA 229 DEB 3.6 19:53:37 10° S 19:59:22 49° ESE 20:05:41 10° NE
USA 229 3.6 19:53:43 10° S 19:59:29 48° ESE 20:05:46 10° NE
Cosmos 1339 Rocket 4.4 19:55:14 10° S 20:01:19 69° E 20:07:23 10° NNE
Cosmos 2151 Rocket 3.5 19:56:57 10° S 20:01:21 87° W 20:05:48 10° N
Cosmos 1934 Rocket 3.9 19:55:53 10° N 20:02:02 70° E 20:06:25 21° SSE
USA 234 3.4 19:58:35 21° SE 20:03:07 67° SW 20:09:39 10° NW
USA 281 3.2 19:59:02 18° SSE 20:04:05 88° WSW 20:10:42 10° NNW
ATLAS CENTAUR R/B 3.4 20:06:50 10° N 20:08:54 14° NE 20:09:58 13° ENE
Cosmos 2227 Rocket 3.3 20:05:15 10° N 20:10:16 31° NE 20:12:21 24° E
Iridium 2 2.8 20:11:16 10° N 20:14:13 89° W 20:14:16 86° SSW
SL-4 R/B 3.1 20:13:37 10° NW 20:16:50 30° NNE 20:17:57 24° NE
Landsat 4 3.6 20:17:01 55° E 20:17:12 56° ENE 20:20:39 10° N
Cosmos 1892 Rocket 4.3 20:14:01 10° N 20:17:58 34° ENE 20:18:09 34° E
MetOp-B 4.1 20:15:37 30° SSE 20:18:25 81° ENE 20:23:48 10° NNW
Cosmos 371 Rocket 3.5 20:14:00 10° NNW 20:18:46 67° WSW 20:21:07 29° S
Cosmos 1697 Rocket 3.2 20:18:56 34° ESE 20:19:14 34° ESE 20:24:19 10° NE
Cosmos 2360 4.4 20:17:18 25° S 20:20:19 48° ESE 20:25:47 10° NE
Cosmos 304 Rocket 3.8 20:17:51 10° NNW 20:22:37 77° WSW 20:24:31 36° S
Cosmos 1777 Rocket 4.1 20:17:58 10° NNW 20:23:15 75° WSW 20:25:46 32° S
Okean 2 Rocket 3.8 20:19:02 10° SSW 20:23:26 55° W 20:27:52 10° N
ATLAS 3B R/B 3.7 20:17:39 10° WSW 20:24:35 53° NW 20:32:02 10° NNE
COSMOS 2455 3.1 20:19:52 10° NNW 20:25:49 56° NE 20:27:59 37° ESE
Alouette 2 Rocket 4.2 20:18:45 10° NNW 20:25:57 85° W 20:28:14 34° S
SPOT 5 3.1 20:26:03 32° S 20:28:36 86° WSW 20:33:53 10° NNW
SWARM A 4.2 20:27:25 10° N 20:30:59 88° E 20:31:01 87° SE
IRS-1A Rocket 4.3 20:28:48 33° SSE 20:31:40 89° E 20:37:34 10° NNW
Cosmos 405 Rocket 3.6 20:33:26 35° NE 20:33:26 35° NE 20:35:55 10° NNE
Spot 2 Rocket 3.6 20:36:25 50° ESE 20:37:22 59° ENE 20:42:21 10° N
BlueWalker 3 2.9 20:34:12 10° WSW 20:37:53 47° NNW 20:40:37 17° NE
Cosmos 2297 Rocket 2.1 20:33:13 10° NNW 20:38:54 87° ENE 20:40:36 48° SSE
CZ-4C R/B 3.3 20:32:01 10° NNW 20:38:57 54° NE 20:42:37 33° ESE
Terra 1.7 20:40:08 59° ESE 20:40:48 69° ENE 20:45:31 10° N
Cosmos 1656 4.0 20:36:53 10° SW 20:42:25 65° WNW 20:47:54 10° NNE
Cosmos 1455 Rocket 3.1 20:46:46 64° ENE 20:46:46 64° ENE 20:50:51 10° NNE
Okean 1 Rocket 3.9 20:44:00 20° SSW 20:46:48 50° WNW 20:51:10 10° N
Iridium 4 Rocket 4.1 20:44:01 22° SSW 20:47:36 64° W 20:53:23 10° N
USA 245 3.8 20:46:54 52° S 20:48:10 83° WSW 20:52:41 10° NNW
Okean-O 4.4 20:48:37 17° SW 20:51:04 28° W 20:54:52 10° NW
Cosmos 332 Rocket 3.6 20:46:27 10° NNW 20:51:20 89° WSW 20:51:54 70° SSE
Cosmos 2219 3.9 20:48:32 10° NNW 20:53:47 37° NE 20:54:33 36° ENE
Ariane Rocket 2.8 20:56:31 68° SSE 20:57:11 89° ENE 21:02:16 10° NNW
Cosmos 1763 Rocket 3.4 20:57:45 46° SSW 20:59:19 83° WNW 21:04:29 10° NNE
Cosmos 1437 Rocket 3.2 20:57:11 10° N 21:00:22 57° N 21:00:22 57° N
Cosmos 44 4.1 20:59:11 10° SW 21:04:30 57° NW 21:09:46 10° NNE
Cosmos 2263 Rocket 3.2 21:00:35 10° N 21:05:34 31° NE 21:06:06 31° ENE
ARGOS Delta rocket 3.9 21:08:36 75° SE 21:09:00 81° ENE 21:14:28 10° N
Cosmos 990 Rocket 3.9 21:06:25 10° NNW 21:11:36 74° WSW 21:11:52 71° SW
Cosmos 2173 Rocket 4.1 21:10:19 10° N 21:16:37 57° ENE 21:17:01 56° E
Cosmos 540 Rocket 3.4 21:18:45 74° WSW 21:19:02 77° WNW 21:24:11 10° NNE
Meteor 2-3 Rocket 4.3 21:14:34 10° N 21:19:41 43° ENE 21:19:41 43° ENE
MOS 1 Rocket 3.7 21:25:21 54° NNW 21:25:21 54° NNW 21:28:47 10° NNW
Cosmos 1153 Rocket 4.5 21:18:36 10° N 21:24:55 78° W 21:25:56 63° SSW
Cosmos 2058 4.0 21:23:46 10° N 21:26:27 40° NNW 21:26:27 40° NNW
Cosmos 468 Rocket 4.2 21:31:31 61° W 21:31:55 64° WNW 21:37:07 10° NNE
ERS-1 Rocket 4.1 21:31:22 32° WSW 21:32:07 34° W 21:36:39 10° NNW
Cosmos 372 Rocket 4.3 21:27:31 10° NNW 21:32:09 61° NNE 21:32:09 61° NNE
SPOT 3 Rocket 4.2 21:35:46 46° WSW 21:36:01 46° W 21:41:02 10° NNW
Cosmos 1802 Rocket 4.1 21:32:53 10° N 21:38:59 62° ENE 21:38:59 62° ENE
Cosmos 841 Rocket 4.3 21:43:36 42° NNE 21:43:36 42° NNE 21:46:58 10° NNE
CENTAUR R/B 3.3 21:34:12 10° NW 21:42:30 70° NE 21:44:48 53° ESE
Cosmos 2016 Rocket 4.2 21:40:21 10° N 21:45:55 57° ENE 21:45:55 57° ENE
ATLAS CENTAUR R/B 3.3 21:43:19 10° NW 21:45:04 26° NW 21:45:04 26° NW
Cosmos 1727 Rocket 4.5 21:49:08 46° WSW 21:50:31 56° WNW 21:56:40 10° N
Cosmos 1980 Rocket 2.5 21:55:13 59° NNE 21:55:13 59° NNE 21:59:45 10° NNE
Cosmos 2100 Rocket 4.0 21:47:45 10° NNW 21:54:06 74° W 21:54:15 73° WSW
Cosmos 2227 Rocket 2.9 21:49:06 10° NW 21:54:10 44° W 21:54:10 44° W
Cosmos 1697 Rocket 3.9 22:00:32 25° WSW 22:03:07 38° NW 22:08:24 10° NNE
Cosmos 1937 Rocket 4.1 21:59:37 10° NNW 22:03:47 54° NW 22:03:47 54° NW
Cosmos 2123 Rocket 4.0 22:05:46 78° N 22:05:46 78° N 22:11:40 10° N
COSMOS 2455 4.3 22:06:27 10° NW 22:11:08 26° WSW 22:11:08 26° WSW
ARIANE 5 R/B 4.2 22:17:17 33° NNW 22:17:17 33° NNW 22:19:48 10° NNW
Terra 4.3 22:18:50 13° W 22:18:52 13° W 22:21:12 10° WNW
Cosmos 2297 Rocket 4.4 22:19:27 10° WNW 22:22:05 13° W 22:22:24 13° W
Cosmos 2369 4.3 22:27:50 52° NNW 22:27:50 52° NNW 22:32:22 10° NNE
CZ-4C R/B 3.6 22:20:30 10° NW 22:27:36 46° WSW 22:27:43 46° WSW
NOSS 3-2 (C) 4.4 22:25:54 10° NNW 22:33:11 57° NE 22:34:32 52° E
Cosmos 1725 Rocket 4.4 22:29:50 10° NNW 22:35:10 56° WNW 22:35:10 56° WNW
Cosmos 2233 Rocket 4.3 22:30:11 10° N 22:35:19 64° NNW 22:35:19 64° NNW
Cosmos 2061 Rocket 4.3 22:36:27 10° NNW 22:42:00 63° NW 22:42:00 63° NW
Cosmos 2360 Rocket 4.2 22:51:06 18° ENE 22:51:06 18° ENE 22:52:51 10° NE
Cosmos 2263 Rocket 3.5 22:44:20 10° NW 22:47:47 32° WNW 22:47:47 32° WNW
Cosmos 2333 Rocket 4.1 23:03:48 20° ENE 23:03:48 20° ENE 23:05:47 10° NE
Cosmos 2322 Rocket 3.8 23:03:59 27° NE 23:03:59 27° NE 23:06:36 10° NE
Lacrosse 5 4.4 23:05:57 13° NE 23:05:57 13° NE 23:06:31 10° NE
NOSS 3-2 (A) 4.3 23:00:37 10° NW 23:07:20 59° W 23:07:20 59° W
SL-16 R/B 3.2 23:22:57 42° NNE 23:22:57 42° NNE 23:26:41 10° NNE
USA 238 DEB 4.0 23:25:37 10° NW 23:32:58 72° NE 23:32:58 72° NE
CENTAUR R/B 4.1 23:25:25 10° NW 23:31:56 35° W 23:31:56 35° W
USA 238 4.0 23:25:43 10° NW 23:33:05 71° NE 23:33:05 71° NE
Cosmos 1844 Rocket 3.9 23:28:45 10° NNW 23:32:09 38° NNW 23:32:09 38° NNW
Cosmos 1980 Rocket 4.5 23:36:55 14° WNW 23:38:55 17° NW 23:42:32 10° N
Timation 2 Rocket 4.5 23:43:08 10° NNW 23:48:19 57° NNW 23:48:19 57° NNW
